• In Czech Republic
  • List of Countries
  • For 7 days
  • Water Temperature
  • Satellite Maps
  • Weather Map
  • Weather Widgets
  • user-avatar
    Login

    Hourly Weather Revolyuciya

    Today, 18 July, Wednesday

    Time Temperature Precipitation Wind Pressure Humidity
    00:00 +19°C° 0.1 mm 3 mps 739 mmHg 96%
    01:00 +19°C° 0.2 mm 4 mps 739 mmHg 96%
    02:00 +19°C° 0.2 mm 4 mps 738 mmHg 96%
    03:00 +19°C° 0 mm 3 mps 738 mmHg 97%
    04:00 +19°C° 0.6 mm 4 mps 738 mmHg 97%
    05:00 +19°C° 0.6 mm 4 mps 738 mmHg 96%
    06:00 +19°C° 0.6 mm 5 mps 738 mmHg 96%
    07:00 +20°C° 0.1 mm 5 mps 738 mmHg 95%
    08:00 +20°C° 0.1 mm 5 mps 738 mmHg 94%
    09:00 +20°C° 0.1 mm 5 mps 738 mmHg 93%
    10:00 +21°C° 0.1 mm 5 mps 738 mmHg 90%
    11:00 +22°C° 0.1 mm 5 mps 738 mmHg 87%
    12:00 +23°C° 0.1 mm 5 mps 738 mmHg 84%
    13:00 +23°C° 0.3 mm 5 mps 738 mmHg 82%
    14:00 +25°C° 0.3 mm 5 mps 738 mmHg 80%
    15:00 +25°C° 0.3 mm 5 mps 738 mmHg 78%
    16:00 +25°C° 0.4 mm 5 mps 738 mmHg 80%
    17:00 +25°C° 0.4 mm 4 mps 738 mmHg 82%
    18:00 +25°C° 0.4 mm 4 mps 738 mmHg 85%
    19:00 +24°C° 0.4 mm 3 mps 738 mmHg 88%
    20:00 +21°C° 0.4 mm 3 mps 738 mmHg 92%
    21:00 +20°C° 0.4 mm 3 mps 738 mmHg 95%
    22:00 +20°C° 0.2 mm 3 mps 738 mmHg 96%
    23:00 +20°C° 0.2 mm 3 mps 738 mmHg 96%

    Tomorrow, 19 July, Thursday

    Time Temperature Precipitation Wind Pressure Humidity
    00:00 +19°C° 0.2 mm 3 mps 738 mmHg 97%
    01:00 +19°C° 0.1 mm 3 mps 738 mmHg 97%
    02:00 +18°C° 0.1 mm 2 mps 738 mmHg 97%
    03:00 +18°C° 0.1 mm 2 mps 738 mmHg 97%
    04:00 +19°C° 0 mm 3 mps 738 mmHg 96%
    05:00 +19°C° 0 mm 3 mps 738 mmHg 95%
    06:00 +20°C° 0 mm 3 mps 739 mmHg 94%
    07:00 +20°C° 0.3 mm 3 mps 739 mmHg 91%
    08:00 +21°C° 0.3 mm 3 mps 739 mmHg 88%
    09:00 +22°C° 0.3 mm 3 mps 739 mmHg 86%
    10:00 +24°C° 0.8 mm 3 mps 739 mmHg 82%
    11:00 +25°C° 0.8 mm 3 mps 739 mmHg 79%
    12:00 +26°C° 0.8 mm 4 mps 739 mmHg 75%
    13:00 +26°C° 0.5 mm 4 mps 739 mmHg 75%
    14:00 +26°C° 0.5 mm 4 mps 739 mmHg 74%
    15:00 +27°C° 0.5 mm 4 mps 739 mmHg 74%
    16:00 +26°C° 0.6 mm 3 mps 739 mmHg 77%
    17:00 +26°C° 0.6 mm 3 mps 739 mmHg 80%
    18:00 +25°C° 0.6 mm 3 mps 739 mmHg 82%
    19:00 +24°C° 0.5 mm 2 mps 739 mmHg 86%
    20:00 +23°C° 0.5 mm 2 mps 739 mmHg 89%
    21:00 +21°C° 0.5 mm 2 mps 739 mmHg 93%
    22:00 +20°C° 0.9 mm 2 mps 739 mmHg 94%
    23:00 +20°C° 0.9 mm 2 mps 740 mmHg 94%

    Day after tomorrow, 20 July, Friday

    Time Temperature Precipitation Wind Pressure Humidity
    00:00 +19°C° 0.9 mm 2 mps 740 mmHg 95%
    01:00 +19°C° 0.2 mm 2 mps 740 mmHg 95%
    02:00 +19°C° 0.2 mm 2 mps 740 mmHg 95%
    03:00 +19°C° 0.2 mm 2 mps 740 mmHg 95%
    04:00 +19°C° 0 mm 2 mps 740 mmHg 94%
    05:00 +20°C° 0 mm 2 mps 740 mmHg 94%
    06:00 +20°C° 0 mm 2 mps 740 mmHg 93%
    07:00 +21°C° 0.4 mm 2 mps 741 mmHg 89%
    08:00 +24°C° 0.4 mm 2 mps 741 mmHg 85%
    09:00 +25°C° 0.4 mm 3 mps 741 mmHg 82%
    10:00 +26°C° 0.5 mm 2 mps 741 mmHg 76%
    11:00 +27°C° 0.5 mm 2 mps 741 mmHg 71%
    12:00 +28°C° 0.5 mm 2 mps 742 mmHg 66%
    13:00 +28°C° 1 mm 3 mps 742 mmHg 69%
    14:00 +28°C° 1 mm 3 mps 742 mmHg 71%
    15:00 +28°C° 1 mm 3 mps 742 mmHg 74%
    16:00 +27°C° 0.9 mm 3 mps 742 mmHg 77%
    17:00 +26°C° 0.9 mm 3 mps 742 mmHg 80%
    18:00 +26°C° 0.9 mm 2 mps 742 mmHg 83%
    19:00 +25°C° 0.3 mm 2 mps 742 mmHg 86%
    20:00 +23°C° 0.3 mm 2 mps 742 mmHg 88%
    21:00 +21°C° 0.3 mm 2 mps 742 mmHg 90%
    22:00 +21°C° 0 mm 2 mps 742 mmHg 91%
    23:00 +20°C° 0 mm 2 mps 742 mmHg 92%

    21 July, Saturday

    Time Temperature Precipitation Wind Pressure Humidity
    00:00 +20°C° 0 mm 3 mps 742 mmHg 93%
    01:00 +20°C° 0.5 mm 2 mps 742 mmHg 94%
    02:00 +19°C° 0.5 mm 2 mps 742 mmHg 95%
    03:00 +19°C° 0.5 mm 2 mps 742 mmHg 96%
    04:00 +19°C° 0.6 mm 2 mps 743 mmHg 96%
    05:00 +20°C° 0.6 mm 2 mps 743 mmHg 96%
    06:00 +20°C° 0.6 mm 2 mps 743 mmHg 96%
    07:00 +21°C° 0.3 mm 3 mps 743 mmHg 94%
    08:00 +22°C° 0.3 mm 3 mps 743 mmHg 93%
    09:00 +22°C° 0.3 mm 3 mps 743 mmHg 92%
    10:00 +23°C° 0.4 mm 4 mps 743 mmHg 88%
    11:00 +25°C° 0.4 mm 4 mps 743 mmHg 85%
    12:00 +26°C° 0.4 mm 5 mps 743 mmHg 82%
    13:00 +26°C° 1.7 mm 5 mps 743 mmHg 82%
    14:00 +26°C° 1.7 mm 4 mps 743 mmHg 83%
    15:00 +26°C° 1.7 mm 4 mps 743 mmHg 84%
    16:00 +25°C° 1 mm 4 mps 743 mmHg 86%
    17:00 +25°C° 1 mm 3 mps 743 mmHg 89%
    18:00 +24°C° 1 mm 3 mps 743 mmHg 92%
    19:00 +22°C° 0.5 mm 3 mps 743 mmHg 93%
    20:00 +22°C° 0.5 mm 3 mps 743 mmHg 95%
    21:00 +21°C° 0.5 mm 3 mps 743 mmHg 96%
    22:00 +21°C° 0.2 mm 3 mps 743 mmHg 96%
    23:00 +20°C° 0.2 mm 3 mps 743 mmHg 97%

    22 July, Sunday

    Time Temperature Precipitation Wind Pressure Humidity
    00:00 +20°C° 0.2 mm 3 mps 743 mmHg 97%
    01:00 +20°C° 0 mm 3 mps 743 mmHg 97%
    02:00 +19°C° 0 mm 3 mps 743 mmHg 98%
    03:00 +19°C° 0 mm 3 mps 743 mmHg 98%
    04:00 +19°C° 0 mm 3 mps 743 mmHg 97%
    05:00 +20°C° 0 mm 3 mps 743 mmHg 97%
    06:00 +20°C° 0 mm 4 mps 743 mmHg 96%
    07:00 +20°C° 0 mm 4 mps 743 mmHg 95%
    08:00 +21°C° 0 mm 4 mps 743 mmHg 93%
    09:00 +21°C° 0 mm 5 mps 743 mmHg 92%
    10:00 +22°C° 0 mm 4 mps 743 mmHg 87%
    11:00 +23°C° 0 mm 4 mps 743 mmHg 83%
    12:00 +26°C° 0 mm 4 mps 743 mmHg 79%
    13:00 +26°C° 0.2 mm 5 mps 743 mmHg 77%
    14:00 +27°C° 0.2 mm 5 mps 743 mmHg 75%
    15:00 +27°C° 0.2 mm 5 mps 743 mmHg 74%
    16:00 +27°C° 0.5 mm 5 mps 743 mmHg 77%
    17:00 +26°C° 0.5 mm 5 mps 743 mmHg 81%
    18:00 +25°C° 0.5 mm 4 mps 743 mmHg 84%
    19:00 +23°C° 0 mm 4 mps 743 mmHg 86%
    20:00 +22°C° 0 mm 4 mps 744 mmHg 88%
    21:00 +21°C° 0 mm 4 mps 744 mmHg 89%
    22:00 +20°C° 0 mm 4 mps 744 mmHg 91%
    23:00 +20°C° 0 mm 4 mps 744 mmHg 92%

    23 July, Monday

    Time Temperature Precipitation Wind Pressure Humidity
    00:00 +19°C° 0 mm 3 mps 744 mmHg 93%
    01:00 +19°C° 0 mm 3 mps 744 mmHg 93%
    02:00 +18°C° 0 mm 3 mps 744 mmHg 93%
    03:00 +18°C° 0 mm 3 mps 744 mmHg 92%
    04:00 +18°C° 0 mm 4 mps 744 mmHg 91%
    05:00 +18°C° 0 mm 4 mps 744 mmHg 89%
    06:00 +18°C° 0 mm 4 mps 744 mmHg 88%
    07:00 +20°C° 0 mm 4 mps 745 mmHg 83%
    08:00 +21°C° 0 mm 5 mps 745 mmHg 79%
    09:00 +23°C° 0 mm 5 mps 745 mmHg 75%
    10:00 +23°C° 0 mm 5 mps 745 mmHg 71%
    11:00 +24°C° 0 mm 6 mps 745 mmHg 67%
    12:00 +26°C° 0 mm 6 mps 745 mmHg 64%
    13:00 +26°C° 0 mm 6 mps 745 mmHg 64%
    14:00 +26°C° 0 mm 6 mps 745 mmHg 64%
    15:00 +26°C° 0 mm 6 mps 745 mmHg 64%
    16:00 +26°C° 0 mm 5 mps 745 mmHg 67%
    17:00 +25°C° 0 mm 5 mps 745 mmHg 70%
    18:00 +23°C° 0 mm 4 mps 745 mmHg 73%
    19:00 +22°C° 0 mm 4 mps 745 mmHg 77%
    20:00 +21°C° 0 mm 4 mps 746 mmHg 80%
    21:00 +19°C° 0 mm 4 mps 746 mmHg 83%
    22:00 +19°C° 0 mm 4 mps 746 mmHg 84%
    23:00 +18°C° 0 mm 4 mps 746 mmHg 85%
    Show more